Regional Weather Roundup
Issued by NWS Albany, NY

Home | Current Version | Previous Version | Text Only | Print | Product List | Glossary On
Versions: 1 2 3 4 5 6 7 8 9 10 11 12 13 14 15 16 17 18 19 20 21 22 23 24 25 26 27
000
ASUS41 KALY 260410
RWRALY

NEW YORK STATE HOURLY WEATHER ROUNDUP
NATIONAL WEATHER SERVICE ALBANY NY
1200 AM EDT TUE JUL 26 2016

NOTE: "FAIR" INDICATES FEW OR NO CLOUDS BELOW 12,000 FEET WITH NO
SIGNIFICANT WEATHER AND/OR NO OBSTRUCTIONS TO VISIBILITY.

NYZ032-033-038>043-046>054-057>066-NYZ062>081-082-084-260500-
EAST


CITY           SKY/WX    TMP DP  RH WIND       PRES   REMARKS
ALBANY         PTCLDY    72  70  93 S5        29.85S
GLENS FALLS    CLEAR     72  68  87 S8        29.82S
POUGHKEEPSIE   PTCLDY    72  69  90 S5        29.87S
MONTGOMERY     CLEAR     68  68 100 S5        29.89S
WHITE PLAINS   MOCLDY    73  71  93 W8        29.88R
ISLIP          MOCLDY    73  71  93 SW10      29.85S
NEW YORK CITY  PTCLDY    78  73  84 SW10      29.87S
CENTRAL PARK   PTCLDY    74  72  93 VRB6      29.91S FOG
$$

NYZ005>009-017-018-044>046-055-056-260500-
CENTRAL


CITY           SKY/WX    TMP DP  RH WIND       PRES   REMARKS
FULTON         PTCLDY    72  67  84 CALM      29.87R
SYRACUSE       MOCLDY    72  70  93 SW6       29.86R
ROME           MOCLDY    73  70  90 CALM      29.87R
ELMIRA         PTCLDY    67  65  93 CALM      29.92R
BINGHAMTON     MOCLDY    67  66  97 SW6       29.94R
MONTICELLO     MOCLDY    66  66 100 W6        29.95S
$$

NYZ026>034-041>043-087-260500-
NORTH


CITY           SKY/WX    TMP DP  RH WIND       PRES   REMARKS
WATERTOWN      CLEAR     73  61  65 W7        29.82S
FORT DRUM      NOT AVBL
MASSENA        CLEAR     73  69  87 SW7       29.77R
SARANAC LAKE   PTCLDY    71  66  84 SW8       29.84R
PLATTSBURGH    PTCLDY    76  68  76 SW6       29.75R
$$

NYZ001>004-010>016-019>021-085-260500-
WEST


CITY           SKY/WX    TMP DP  RH WIND       PRES   REMARKS
NIAGARA FALLS  CLEAR     72  62  71 SW7       29.90S
BUFFALO        PTCLDY    73  61  65 SW6       29.91S
DUNKIRK        MOCLDY    73  71  93 SW6       29.93F
JAMESTOWN      CLEAR     70  64  83 W8        29.99S
WELLSVILLE     CLEAR     69  65  86 W7        30.01R
ROCHESTER      PTCLDY    72  70  93 SW5       29.89R
PENN YAN       PTCLDY    74  69  85 SW7       29.92R
$$

             KEY
       WCI = WIND CHILL INDEX
       VSB = VISIBILITY
       HX  = HEAT INDEX
$$




USA.gov is the U.S. government's official web portal to all federal, state and local government web resources and services.